Weather History for Elizabethtown, NC

Change the Weather History Date:

Friday, April 19, 2013

  Actual Average (KILM) Record (KILM)
Temperature  
Mean Temperature 74 °F 64 °F  
Max Temperature 82 °F 75 °F 89 °F (1958)
Min Temperature 66 °F 53 °F 28 °F (1875)
Degree Days  
Heating Degree Days 0 4  
Month to date heating degree days 101  
Since 1 July heating degree days 2353  
Cooling Degree Days 9 2  
Month to date cooling degree days 32  
Year to date cooling degree days 53  
Growing Degree Days 24 (Base 50)    
Moisture  
Dew Point 68 °F    
Average Humidity 86    
Maximum Humidity 100    
Minimum Humidity 62    
Precipitation  
Precipitation 0.44 in 0.09 in 3.32 in (1951)
Month to date precipitation 1.78  
Year to date precipitation 13.37  
Snow  
Snow 0.00 in 0.00 in - ()
Month to date snowfall 0.0  
Since 1 July snowfall 1.7  
Snow Depth -    
Sea Level Pressure  
Sea Level Pressure 29.94 in    
Wind  
Wind Speed 7 mph (South)    
Max Wind Speed 20 mph    
Max Gust Speed 28 mph    
Visibility 9 miles    
Events Rain    
T = Trace of Precipitation, MM = Missing Value Source: NWS Daily Summary

Daily Weather History Graph

Daily Weather History Graph

Search for Another Location

Airport:

Trip Planner

Search our weather history database for the weather conditions in past years. The results will help you decide how hot, cold, wet, or windy it might be!

Date:

Astronomy

Apr. 19, 2013 Rise Set
Actual Time 6:37 AM EDT 7:49 PM EDT
Civil Twilight 6:11 AM EDT 8:15 PM EDT
Nautical Twilight 5:40 AM EDT 8:47 PM EDT
Astronomical Twilight 5:07 AM EDT 9:19 PM EDT
Moon 1:47 PM EDT (4/19) 2:36 AM EDT (4/19)
Length of Visible Light 14h 04m
Length of Day
13h 12m
First Quarter, 61% of the Moon is Illuminated
Apr 19
First Quarter
Apr 25
Full
May 2
Last Quarter
May 9
New
May 18
First Quarter

Hourly Weather History & Observations

Time (EDT) Temp. Heat Index Dew Point Humidity Pressure Visibility Wind Dir Wind Speed Gust Speed Precip Events Conditions
12:15 AM 66.2 °F - 66.2 °F 100% 30.07 in 7.0 mi Calm Calm - N/A   Mostly Cloudy
12:35 AM 66.2 °F - 66.2 °F 100% 30.07 in 7.0 mi SE 3.5 mph - N/A   Clear
12:55 AM 66.2 °F - 66.2 °F 100% 30.06 in 7.0 mi SE 3.5 mph - N/A   Scattered Clouds
1:15 AM 66.2 °F - 66.2 °F 100% 30.06 in 7.0 mi SE 3.5 mph - N/A   Scattered Clouds
1:35 AM 66.2 °F - 66.2 °F 100% 30.05 in 7.0 mi SE 4.6 mph - N/A   Scattered Clouds
1:55 AM 66.2 °F - 66.2 °F 100% 30.04 in 7.0 mi SE 4.6 mph - N/A   Scattered Clouds
2:15 AM 66.2 °F - 66.2 °F 100% 30.03 in 7.0 mi SE 4.6 mph - N/A   Mostly Cloudy
2:35 AM 66.2 °F - 66.2 °F 100% 30.01 in 7.0 mi SE 6.9 mph - N/A   Mostly Cloudy
2:55 AM 66.6 °F - 66.6 °F 100% 30.00 in 7.0 mi SE 6.9 mph - N/A   Overcast
3:15 AM 66.7 °F - 66.7 °F 100% 29.99 in 7.0 mi SE 5.8 mph - N/A   Overcast
3:35 AM 66.7 °F - 66.7 °F 100% 29.99 in 7.0 mi SSE 6.9 mph - N/A   Overcast
3:55 AM 67.1 °F - 67.1 °F 100% 29.98 in 5.0 mi SSE 6.9 mph - N/A   Overcast
4:15 AM 67.1 °F - 67.1 °F 100% 29.98 in 7.0 mi SSE 9.2 mph - N/A   Overcast
4:35 AM 67.6 °F - 67.6 °F 100% 29.98 in 7.0 mi SSE 5.8 mph - N/A   Overcast
4:55 AM 68.0 °F - 68.0 °F 100% 29.97 in 7.0 mi SSE 6.9 mph - N/A   Overcast
5:15 AM 68.0 °F - 68.0 °F 100% 29.97 in 7.0 mi SSE 5.8 mph - N/A   Overcast
5:35 AM 68.2 °F - 68.2 °F 100% 29.97 in 7.0 mi SSE 5.8 mph - N/A   Overcast
5:55 AM 68.4 °F - 68.4 °F 100% 29.96 in 7.0 mi SSE 5.8 mph - N/A   Overcast
6:15 AM 68.2 °F - 68.2 °F 100% 29.97 in 7.0 mi South 5.8 mph - N/A   Overcast
6:35 AM 68.2 °F - 68.0 °F 99% 29.97 in 7.0 mi South 5.8 mph - N/A   Overcast
7:15 AM 68.2 °F - 68.0 °F 99% 29.97 in 7.0 mi South 4.6 mph - N/A   Mostly Cloudy
7:35 AM 68.4 °F - 68.2 °F 99% 29.98 in 7.0 mi South 5.8 mph - N/A   Clear
7:55 AM 68.9 °F - 68.5 °F 99% 29.99 in 7.0 mi South 4.6 mph - N/A   Clear
8:15 AM 69.8 °F - 68.9 °F 97% 29.99 in 7.0 mi South 6.9 mph - N/A   Scattered Clouds
8:35 AM 69.8 °F - 68.2 °F 95% 29.99 in 10.0 mi South 6.9 mph - N/A   Clear
8:55 AM 70.7 °F - 68.4 °F 92% 29.99 in 10.0 mi South 5.8 mph - N/A   Clear
9:15 AM 71.4 °F - 68.2 °F 89% 29.99 in 10.0 mi South 5.8 mph - N/A   Clear
9:35 AM 73.0 °F - 68.9 °F 87% 29.99 in 10.0 mi South 8.1 mph - N/A   Clear
9:55 AM 75.2 °F - 69.1 °F 81% 29.99 in 10.0 mi South 9.2 mph - N/A   Scattered Clouds
10:15 AM 74.5 °F - 68.9 °F 83% 29.99 in 10.0 mi South 10.4 mph 19.6 mph N/A   Mostly Cloudy
10:35 AM 77.0 °F - 69.4 °F 77% 29.98 in 10.0 mi South 9.2 mph - N/A   Mostly Cloudy
11:15 AM 77.0 °F - 68.4 °F 75% 29.98 in 10.0 mi SW 15.0 mph 23.0 mph N/A   Mostly Cloudy
11:35 AM 77.9 °F - 68.0 °F 71% 29.97 in 10.0 mi SSW 13.8 mph 20.7 mph N/A   Mostly Cloudy
11:55 AM 78.4 °F - 68.0 °F 70% 29.96 in 10.0 mi SSW 12.7 mph 19.6 mph N/A   Scattered Clouds
12:15 PM 79.7 °F - 68.2 °F 68% 29.96 in 10.0 mi South 11.5 mph 18.4 mph N/A   Mostly Cloudy
12:35 PM 80.8 °F 83.5 °F 68.2 °F 65% 29.95 in 10.0 mi SSW 13.8 mph 19.6 mph N/A   Mostly Cloudy
12:55 PM 80.2 °F 83.0 °F 68.4 °F 67% 29.94 in 10.0 mi South 12.7 mph 19.6 mph N/A   Mostly Cloudy
1:15 PM 82.8 °F 86.0 °F 68.4 °F 62% 29.92 in 10.0 mi South 15.0 mph 20.7 mph N/A   Mostly Cloudy
1:35 PM 82.0 °F 84.9 °F 68.0 °F 62% 29.92 in 10.0 mi South 15.0 mph 21.9 mph N/A   Mostly Cloudy
1:55 PM 82.0 °F 84.9 °F 67.8 °F 62% 29.92 in 10.0 mi South 16.1 mph 24.2 mph N/A   Overcast
2:15 PM 82.0 °F 84.9 °F 68.0 °F 62% 29.90 in 10.0 mi South 15.0 mph 25.3 mph N/A   Mostly Cloudy
2:35 PM 81.5 °F 84.2 °F 68.0 °F 63% 29.89 in 10.0 mi South 18.4 mph 27.6 mph N/A   Scattered Clouds
2:55 PM 81.0 °F 83.8 °F 68.2 °F 65% 29.88 in 10.0 mi South 15.0 mph 23.0 mph N/A   Mostly Cloudy
3:15 PM 80.2 °F 82.8 °F 68.0 °F 66% 29.87 in 10.0 mi South 16.1 mph 24.2 mph N/A   Mostly Cloudy
3:35 PM 80.2 °F 82.6 °F 67.3 °F 64% 29.87 in 10.0 mi South 13.8 mph 20.7 mph N/A   Mostly Cloudy
3:55 PM 80.1 °F 82.3 °F 66.7 °F 64% 29.87 in 10.0 mi South 10.4 mph 21.9 mph N/A   Overcast
4:15 PM 78.3 °F - 66.7 °F 68% 29.87 in 10.0 mi South 9.2 mph 23.0 mph N/A   Overcast
4:35 PM 77.2 °F - 67.3 °F 71% 29.86 in 10.0 mi South 12.7 mph 21.9 mph N/A   Overcast
4:55 PM 77.0 °F - 67.5 °F 72% 29.86 in 10.0 mi South 16.1 mph 25.3 mph N/A   Overcast
5:15 PM 77.2 °F - 68.0 °F 73% 29.85 in 10.0 mi South 11.5 mph 21.9 mph N/A   Mostly Cloudy
5:35 PM 77.4 °F - 68.2 °F 73% 29.85 in 10.0 mi South 11.5 mph 20.7 mph N/A   Overcast
5:55 PM 77.0 °F - 68.5 °F 75% 29.85 in 10.0 mi South 15.0 mph 23.0 mph N/A   Overcast
6:15 PM 77.0 °F - 68.9 °F 76% 29.84 in 10.0 mi South 13.8 mph 20.7 mph N/A   Overcast
6:35 PM 76.1 °F - 68.4 °F 77% 29.84 in 10.0 mi South 15.0 mph 24.2 mph N/A   Mostly Cloudy
6:55 PM 75.4 °F - 68.0 °F 78% 29.84 in 10.0 mi South 13.8 mph 23.0 mph N/A   Scattered Clouds
7:15 PM 75.4 °F - 68.0 °F 78% 29.86 in 10.0 mi South 15.0 mph 24.2 mph N/A   Mostly Cloudy
7:35 PM 75.4 °F - 67.6 °F 77% 29.86 in 10.0 mi South 17.3 mph 26.5 mph N/A   Mostly Cloudy
7:55 PM 75.4 °F - 67.6 °F 77% 29.86 in 10.0 mi South 16.1 mph 25.3 mph N/A   Overcast
8:15 PM 75.2 °F - 68.0 °F 78% 29.85 in 10.0 mi South 11.5 mph 23.0 mph N/A   Overcast
8:35 PM 75.2 °F - 68.2 °F 79% 29.87 in 10.0 mi South 11.5 mph 20.7 mph N/A   Overcast
8:55 PM 74.8 °F - 66.9 °F 76% 29.90 in 10.0 mi West 19.6 mph 26.5 mph N/A   Overcast
9:15 PM 68.0 °F - 66.2 °F 94% 29.91 in 2.5 mi SW 8.1 mph 19.6 mph 0.35 in Rain Heavy Rain
9:35 PM 67.1 °F - 66.2 °F 97% 29.88 in 7.0 mi WSW 8.1 mph - 0.39 in Rain Light Rain
9:55 PM 67.1 °F - 66.4 °F 98% 29.90 in 10.0 mi SSW 6.9 mph - 0.40 in   Mostly Cloudy
10:15 PM 67.1 °F - 66.4 °F 98% 29.88 in 7.0 mi SW 3.5 mph - 0.02 in Rain Rain
10:35 PM 67.1 °F - 66.6 °F 98% 29.89 in 10.0 mi SSW 5.8 mph - 0.02 in Rain Light Rain
10:55 PM 67.1 °F - 66.6 °F 98% 29.89 in 10.0 mi South 6.9 mph - 0.03 in Rain Light Rain
11:15 PM 67.1 °F - 66.6 °F 98% 29.88 in 10.0 mi SSW 4.6 mph - N/A Rain Rain
11:35 PM 67.1 °F - 66.7 °F 99% 29.87 in 10.0 mi South 5.8 mph - 0.01 in Rain Light Rain
11:55 PM 67.1 °F - 67.1 °F 100% 29.87 in 10.0 mi South 6.9 mph - 0.01 in   Overcast